[[{"header":{"parameterUnit":"m.s-1","parameterCategory":1,"la1":30.2992,"la2":30.254,"lo1":-89.0895,"lo2":-89.0443,"dy":0.0025,"dx":0.0025,"nx":19,"ny":19,"refTime":"2026-04-20T09:00:00:Z","depth":0,"parameterNumber":2,"parameterNumberName":"U-component_of_WINDS"},"data":[0,0,0,-3.7143,-3.7143,-3.7167,-3.7167,-3.7222,-3.7223,0,0,0,0,0,0,0,0,0,0,0,-3.7149,-3.715,-3.7143,-3.7144,-3.7167,-3.7167,-3.7222,-3.7223,0,0,0,0,0,0,0,0,0,0,0,-3.7149,-3.715,-3.7151,-3.7144,-3.7167,-3.7167,-3.7222,-3.7196,0,0,0,0,0,0,0,0,0,0,-3.7169,-3.7187,-3.715,-3.7151,-3.7144,-3.7167,-3.7167,-3.7194,-3.7197,-3.7222,0,-3.7246,0,-3.7235,-3.7228,-3.7228,0,0,0,-3.7134,-3.7185,-3.7179,-3.7151,-3.7144,-3.7167,-3.7154,-3.7196,-3.7199,-3.7226,-3.7246,-3.7248,-3.7236,-3.7228,-3.7229,-3.7401,-3.7402,0,0,-3.7133,-3.7161,-3.7176,-3.7182,-3.7178,-3.7153,-3.7154,-3.7197,-3.7221,-3.7246,-3.7248,-3.7237,-3.7229,-3.723,-3.74,-3.7402,0,0,0,-3.7135,-3.716,-3.7153,-3.718,-3.7182,-3.7154,-3.7156,-3.7219,-3.7215,-3.7249,-3.7238,-3.7229,-3.723,-3.7399,-3.7401,-3.7492,0,0,0,-3.7134,-3.7162,-3.7153,-3.717,-3.7182,-3.7201,-3.7177,-3.7212,-3.7215,-3.7237,-3.7229,-3.7231,-3.7397,-3.74,-3.7487,-3.7532,0,0,0,-3.7143,-3.7163,-3.7171,-3.7172,-3.7183,-3.7199,-3.7197,-3.7212,-3.7209,-3.7228,-3.7231,-3.7396,-3.7399,-3.7482,-3.7524,-3.7589,0,0,0,-3.7161,-3.725,-3.7172,-3.7268,-3.7183,-3.7255,-3.7196,-3.7248,-3.7275,-3.723,-3.7397,-3.74,-3.748,-3.7519,-3.7584,-3.7651,-3.7681,0,0,-3.7289,-3.7267,-3.7321,-3.7252,-3.7345,-3.7249,-3.7356,-3.7354,-3.733,-3.7379,-3.7383,-3.7489,-3.7523,-3.7588,-3.7831,-3.7855,0,0,0,-3.7371,-3.7411,-3.7429,-3.7456,-3.7456,-3.7462,-3.744,-3.744,-3.7481,-3.736,-3.7527,-3.7546,-3.7583,-3.7615,-3.7635,-3.7667,-3.7415,-3.7414,-3.7414,-3.7595,-3.756,-3.7648,-3.7617,-3.7644,-3.7622,-3.7642,-3.7638,-3.7593,-3.7633,-3.7649,-3.7801,-3.7838,-3.7853,-3.7887,-3.7678,-3.7679,-3.7679,-3.7679,-3.7784,-3.7836,-3.7776,-3.784,-3.7804,-3.7858,-3.7841,-3.7808,-3.7856,-3.7785,-3.7816,-3.7745,-3.788,-3.7908,-3.7686,-3.7685,-3.7684,-3.7683,-3.7683,-3.793,-3.7949,-3.7947,-3.7984,-3.8018,-3.7982,-3.8031,-3.7994,-3.796,-3.799,-3.8006,-3.8004,-3.8002,-3.8,-3.8,-3.8001,-3.8001,-3.8002,-3.8002,-3.8084,-3.8078,-3.8124,-3.8133,-3.8147,-3.8161,-3.8141,-3.8155,-3.8161,-3.8131,-3.8131,-3.8087,-3.7898,-3.7854,-3.801,-3.8009,-3.8007,-3.8007,-3.8006,-3.8296,-3.8242,-3.8312,-3.8327,-3.8337,-3.8375,-3.8326,-3.8358,-3.8364,-3.8391,-3.8338,-3.8204,-3.8178,-3.8162,-3.8126,-3.8342,-3.8342,-3.8342,-3.8342,-3.8422,-3.8405,-3.847,-3.8497,-3.8518,-3.8482,-3.8567,-3.8553,-3.8531,-3.8533,-3.8496,-3.8443,-3.8428,-3.8412,-3.839,-3.8356,-3.8626,-3.8626,-3.8626,-3.8552,-3.8536,-3.8614,-3.859,-3.8595,-3.8602,-3.8682,-3.8717,-3.868,-3.8637,-3.8535,-3.8524,-3.8438,-3.8411,-3.837,-3.8337,-3.8273,0,0]},{"header":{"parameterUnit":"m.s-1","parameterCategory":1,"la1":30.2992,"la2":30.254,"lo1":-89.0895,"lo2":-89.0443,"dy":0.0025,"dx":0.0025,"nx":19,"ny":19,"refTime":"2026-04-20T09:00:00:Z","depth":0,"parameterNumber":3,"parameterNumberName":"V-component_of_WINDS"},"data":[0,0,0,0.3207,0.3205,0.3133,0.3132,0.304,0.3039,0,0,0,0,0,0,0,0,0,0,0,0.3231,0.323,0.3207,0.3205,0.3133,0.3132,0.304,0.3039,0,0,0,0,0,0,0,0,0,0,0,0.3231,0.323,0.323,0.3205,0.3133,0.3132,0.304,0.3094,0,0,0,0,0,0,0,0,0,0,0.3164,0.319,0.3231,0.323,0.3204,0.3133,0.3132,0.3097,0.3091,0.3074,0,0.3062,0,0.3049,0.3033,0.3033,0,0,0,0.3202,0.3195,0.3173,0.323,0.3204,0.3133,0.3165,0.3093,0.3087,0.3066,0.306,0.3057,0.3048,0.3033,0.3032,0.295,0.295,0,0,0.3206,0.3218,0.3178,0.3169,0.3184,0.3167,0.3162,0.3089,0.3083,0.306,0.3055,0.3046,0.3032,0.3031,0.295,0.295,0,0,0,0.322,0.3221,0.3202,0.3173,0.316,0.3165,0.316,0.3086,0.3079,0.3054,0.3045,0.3032,0.3031,0.295,0.295,0.295,0,0,0,0.3222,0.3229,0.3203,0.321,0.3162,0.3123,0.3158,0.3084,0.3075,0.3046,0.3032,0.303,0.2951,0.295,0.2951,0.2947,0,0,0,0.3234,0.3231,0.3222,0.3211,0.3181,0.3124,0.3112,0.3082,0.307,0.3033,0.3029,0.2951,0.295,0.2951,0.2947,0.2928,0,0,0,0.3251,0.3222,0.3222,0.3186,0.3182,0.3126,0.3112,0.307,0.3038,0.3031,0.2951,0.295,0.2951,0.2948,0.2928,0.2912,0.2907,0,0,0.3221,0.3218,0.3196,0.3194,0.3142,0.3136,0.3082,0.304,0.3024,0.2975,0.2973,0.295,0.2948,0.2928,0.2879,0.2875,0,0,0,0.3191,0.3175,0.3158,0.313,0.3099,0.3071,0.3037,0.3021,0.2979,0.3002,0.2939,0.2937,0.2924,0.2916,0.2912,0.29,0.2947,0.2948,0.2948,0.3163,0.3147,0.3109,0.3083,0.3056,0.3022,0.2997,0.2969,0.2959,0.2944,0.2928,0.2901,0.2892,0.2889,0.2877,0.292,0.292,0.292,0.292,0.3116,0.3089,0.3079,0.3038,0.302,0.2984,0.2949,0.2943,0.2905,0.2911,0.29,0.2906,0.2886,0.2873,0.292,0.292,0.292,0.292,0.292,0.3094,0.3078,0.3062,0.302,0.2989,0.2964,0.2929,0.2914,0.2898,0.2887,0.2868,0.2868,0.2863,0.288,0.288,0.288,0.2879,0.2879,0.2879,0.3076,0.3058,0.3032,0.2998,0.2978,0.295,0.2916,0.2894,0.2866,0.2857,0.2857,0.2847,0.2888,0.2898,0.2878,0.2878,0.2878,0.2878,0.2878,0.3029,0.3038,0.2997,0.2978,0.2936,0.2905,0.2888,0.2846,0.2827,0.2809,0.2802,0.2837,0.2832,0.2834,0.2842,0.2808,0.2808,0.2808,0.2808,0.3009,0.3007,0.2962,0.2931,0.2899,0.2879,0.2831,0.2804,0.2777,0.2763,0.2767,0.2776,0.278,0.2772,0.2776,0.2783,0.2735,0.2735,0.2735,0.2978,0.2972,0.2935,0.2912,0.2879,0.285,0.2803,0.2766,0.2737,0.2731,0.2752,0.2755,0.277,0.2776,0.2767,0.2774,0.2785,0,0]}]]